Tracking 19854 objects as of 21-Sep-2019
HD Live streaming from Space Station
objects crossing your sky now

CZ-4C R/B

Track CZ-4C R/B now!
10-day predictions


NORAD ID: 44210
Int'l Code: 2019-024D
Perigee: 278.7 km
Apogee: 475.9 km
Inclination: 97.5 °
Period: 91.9 minutes
Semi major axis: 6748 km
RCS: Unknown
Launch date: April 29, 2019
Source: People's Republic of China (PRC)
Launch site: Taiyaun Space Center, China (TSC)

Note: This is a ROCKET BODY
aabbcc
Your satellite tracking list
Your tracking list is empty




NASA's NSSDC Master Catalog

Two Line Element Set (TLE):
1 44210U 19024D   19264.57971803  .00025771  24179-5  14355-3 0  9990
2 44210  97.5189 281.3384 0146112 192.8739 166.8756 15.66074079 22575
Source of the keplerian elements: AFSPC